{"data":{"norad_id":44725,"intl_designator":"2019-074N","name":"STARLINK-1020","alt_names":[],"object_type":"PAYLOAD","status":"ACTIVE","operator":null,"country":"US","launch_date":"2019-11-11","launch_site_code":"AFETR","launch_vehicle":null,"mission":null,"orbit_class":"UNKNOWN","rcs_meters":null,"size_class":null,"mass_kg":null,"dimensions":null,"purposes":["comms"],"wikipedia_slug":null,"has_3d_model":false,"image_url":null,"decayed_at":null,"tle_current":{"epoch":"2026-05-25T03:29:18.380832Z","epoch_age_seconds":72881,"freshness":"FRESH","line1":"1 44725U 19074N   26145.14535163  .00060528  00000+0  97779-3 0  9991","line2":"2 44725  53.1583 203.6633 0004027  16.9884 343.1261 15.52310791360273","mean_motion":15.52310791,"eccentricity":0.0004027,"inclination_deg":53.1583,"raan_deg":203.6633,"arg_perigee_deg":16.9884,"mean_anomaly_deg":343.1261,"bstar":0.00097779,"rev_number":36027,"period_min":92.764928798334,"perigee_km":407.24753607346,"apogee_km":412.71468640025,"semimajor_km":6788.1181112369,"source":"CELESTRAK","updated_at":"2026-05-25T13:38:16.372477Z"}}}